Location: Ahausen
(50.4985°N, 8.2722°E)
Time: 03:29:25
(UTC+00:00)

ARGOS - Pass Details

Date: 18 September 2020
Orbit: 821 x 834 km, 98.4° (Epoch: 22 October)

Event Time Altitude Azimuth Distance (km) Brightness Sun altitude
Rises 19:14:54 0° 183° (S) 3,341 6.1 -16.5°
Reaches altitude 10° 19:17:20 10° 189° (S) 2,414 5.4 -16.9°
Maximum altitude 19:22:27 45° 262° (W) 1,113 4.2 -17.6°
Drops below altitude 10° 19:27:37 10° 335° (NNW) 2,437 6.3 -18.3°
Sets 19:30:05 0° 341° (NNW) 3,376 7.0 -18.7°
